User: anonymous   Login
Location: Guayaquil
(2.1667°S, 79.9000°W)
Time: 23:30:06
(UTC-05:00)
Language:

Envisat - Orbit

View from above orbital plane
View from above orbital plane
View from above satellite
View from above satellite

Ground track
Ground track

The orbit data is extracted from the following two-line orbital elements,

1 27386U 02009A   20270.75695478  .00000026  00000-0  22195-4 0  9990
2 27386  98.1394 272.4888 0001227  86.6267  86.4366 14.37992968973176
Epoch (UTC): 26 September 2020 18:10:00
Eccentricity: 0.0001227
inclination: 98.1394°
perigee height: 764 km
apogee height: 766 km
right ascension of ascending node: 272.4888°
argument of perigee: 86.6267°
revolutions per day: 14.37992968
mean anomaly at epoch: 86.4366°
orbit number at epoch: 97317

The dashed part of the orbit path shows where the satellite is in the earth's shadow,  

DLR